• Em Portugal
  • Lista de países
  • Para 7 dias
  • Temperatura da água
  • Mapas de satélite
  • Mapa do tempo
  • Widgets de tempo
  • user-avatar
    Iniciar Sessão

    Previsão horária em Brasília

    Hoje, 23 Janeiro, Terça-feira

    Tempo Temperatura Precipitação Vento Pressão Humidade
    00:00 +21°C° 0 mm 1 m/s 664 mmHg 74%
    01:00 +21°C° 0 mm 1 m/s 664 mmHg 74%
    02:00 +20°C° 0 mm 1 m/s 664 mmHg 74%
    03:00 +20°C° 0 mm 1 m/s 664 mmHg 75%
    04:00 +20°C° 0 mm 1 m/s 664 mmHg 75%
    05:00 +19°C° 0 mm 1 m/s 664 mmHg 75%
    06:00 +19°C° 0 mm 1 m/s 664 mmHg 75%
    07:00 +20°C° 0 mm 2 m/s 665 mmHg 69%
    08:00 +23°C° 0 mm 2 m/s 666 mmHg 64%
    09:00 +25°C° 0 mm 3 m/s 667 mmHg 59%
    10:00 +27°C° 0 mm 3 m/s 667 mmHg 54%
    11:00 +28°C° 0 mm 3 m/s 667 mmHg 49%
    12:00 +29°C° 0 mm 3 m/s 667 mmHg 43%
    13:00 +30°C° 0 mm 3 m/s 666 mmHg 42%
    14:00 +30°C° 0 mm 3 m/s 666 mmHg 41%
    15:00 +30°C° 0 mm 2 m/s 665 mmHg 40%
    16:00 +29°C° 0 mm 2 m/s 665 mmHg 46%
    17:00 +28°C° 0 mm 2 m/s 664 mmHg 53%
    18:00 +27°C° 0 mm 2 m/s 664 mmHg 59%
    19:00 +26°C° 0 mm 1 m/s 664 mmHg 61%
    20:00 +24°C° 0 mm 1 m/s 664 mmHg 64%
    21:00 +23°C° 0 mm 1 m/s 664 mmHg 67%
    22:00 +22°C° 0 mm 1 m/s 664 mmHg 68%
    23:00 +22°C° 0 mm 1 m/s 665 mmHg 69%

    Amanhã, 24 Janeiro, Quarta-feira

    Tempo Temperatura Precipitação Vento Pressão Humidade
    00:00 +21°C° 0 mm 1 m/s 665 mmHg 70%
    01:00 +21°C° 0 mm 1 m/s 664 mmHg 72%
    02:00 +21°C° 0 mm 1 m/s 664 mmHg 74%
    03:00 +20°C° 0 mm 1 m/s 664 mmHg 76%
    04:00 +20°C° 0 mm 1 m/s 664 mmHg 77%
    05:00 +20°C° 0 mm 1 m/s 664 mmHg 78%
    06:00 +20°C° 0 mm 1 m/s 664 mmHg 78%
    07:00 +21°C° 0 mm 2 m/s 665 mmHg 74%
    08:00 +23°C° 0 mm 2 m/s 666 mmHg 70%
    09:00 +25°C° 0 mm 3 m/s 667 mmHg 66%
    10:00 +27°C° 0 mm 3 m/s 667 mmHg 61%
    11:00 +28°C° 0 mm 2 m/s 667 mmHg 56%
    12:00 +29°C° 0 mm 2 m/s 667 mmHg 51%
    13:00 +29°C° 0,1 mm 2 m/s 666 mmHg 52%
    14:00 +29°C° 0,1 mm 2 m/s 665 mmHg 52%
    15:00 +29°C° 0,1 mm 1 m/s 665 mmHg 53%
    16:00 +28°C° 0,4 mm 1 m/s 664 mmHg 58%
    17:00 +28°C° 0,4 mm 1 m/s 664 mmHg 63%
    18:00 +27°C° 0,4 mm 1 m/s 664 mmHg 68%
    19:00 +25°C° 0,6 mm 1 m/s 664 mmHg 72%
    20:00 +24°C° 0,6 mm 1 m/s 664 mmHg 76%
    21:00 +22°C° 0,6 mm 1 m/s 664 mmHg 80%
    22:00 +22°C° 0,3 mm 1 m/s 664 mmHg 82%
    23:00 +21°C° 0,3 mm 1 m/s 664 mmHg 83%

    Depois de amanhã, 25 Janeiro, Quinta-feira

    Tempo Temperatura Precipitação Vento Pressão Humidade
    00:00 +21°C° 0,3 mm 1 m/s 664 mmHg 84%
    01:00 +21°C° 0,2 mm 1 m/s 664 mmHg 85%
    02:00 +21°C° 0,2 mm 1 m/s 664 mmHg 87%
    03:00 +20°C° 0,2 mm 1 m/s 663 mmHg 88%
    04:00 +20°C° 0,3 mm 1 m/s 663 mmHg 89%
    05:00 +20°C° 0,3 mm 1 m/s 663 mmHg 91%
    06:00 +19°C° 0,3 mm 2 m/s 663 mmHg 92%
    07:00 +20°C° 0,2 mm 2 m/s 664 mmHg 86%
    08:00 +23°C° 0,2 mm 2 m/s 665 mmHg 79%
    09:00 +25°C° 0,2 mm 2 m/s 665 mmHg 73%
    10:00 +26°C° 0,8 mm 2 m/s 665 mmHg 69%
    11:00 +27°C° 0,8 mm 2 m/s 665 mmHg 65%
    12:00 +28°C° 0,8 mm 2 m/s 665 mmHg 61%
    13:00 +28°C° 1,8 mm 2 m/s 665 mmHg 63%
    14:00 +28°C° 1,8 mm 2 m/s 664 mmHg 66%
    15:00 +28°C° 1,8 mm 2 m/s 663 mmHg 68%
    16:00 +26°C° 2,2 mm 2 m/s 663 mmHg 74%
    17:00 +25°C° 2,2 mm 2 m/s 662 mmHg 80%
    18:00 +24°C° 2,2 mm 1 m/s 662 mmHg 86%
    19:00 +23°C° 1 mm 1 m/s 662 mmHg 87%
    20:00 +22°C° 1 mm 1 m/s 663 mmHg 88%
    21:00 +21°C° 1 mm 1 m/s 663 mmHg 89%
    22:00 +21°C° 0 mm 1 m/s 663 mmHg 90%
    23:00 +21°C° 0 mm 1 m/s 663 mmHg 90%

    26 Janeiro, Sexta-feira

    Tempo Temperatura Precipitação Vento Pressão Humidade
    00:00 +20°C° 0 mm 1 m/s 663 mmHg 91%
    01:00 +20°C° 0,3 mm 1 m/s 662 mmHg 91%
    02:00 +20°C° 0,3 mm 1 m/s 662 mmHg 91%
    03:00 +18°C° 0,3 mm 0 m/s 662 mmHg 91%
    04:00 +18°C° 0,3 mm 0 m/s 662 mmHg 91%
    05:00 +18°C° 0,3 mm 0 m/s 662 mmHg 91%
    06:00 +17°C° 0,3 mm 0 m/s 662 mmHg 91%
    07:00 +19°C° 0,3 mm 0 m/s 663 mmHg 86%
    08:00 +21°C° 0,3 mm 0 m/s 664 mmHg 81%
    09:00 +23°C° 0,3 mm 0 m/s 664 mmHg 76%
    10:00 +26°C° 0,9 mm 1 m/s 664 mmHg 73%
    11:00 +27°C° 0,9 mm 2 m/s 664 mmHg 71%
    12:00 +27°C° 0,9 mm 2 m/s 664 mmHg 68%
    13:00 +27°C° 1,5 mm 2 m/s 663 mmHg 70%
    14:00 +27°C° 1,5 mm 2 m/s 663 mmHg 73%
    15:00 +26°C° 1,5 mm 2 m/s 662 mmHg 75%
    16:00 +25°C° 2 mm 2 m/s 662 mmHg 80%
    17:00 +24°C° 2 mm 1 m/s 662 mmHg 84%
    18:00 +23°C° 2 mm 1 m/s 662 mmHg 89%
    19:00 +23°C° 1,4 mm 1 m/s 662 mmHg 90%
    20:00 +22°C° 1,4 mm 1 m/s 662 mmHg 91%
    21:00 +21°C° 1,4 mm 1 m/s 663 mmHg 92%
    22:00 +21°C° 0,9 mm 1 m/s 663 mmHg 92%
    23:00 +21°C° 0,9 mm 1 m/s 663 mmHg 93%

    27 Janeiro, Sábado

    Tempo Temperatura Precipitação Vento Pressão Humidade
    00:00 +21°C° 0,9 mm 1 m/s 663 mmHg 93%
    01:00 +21°C° 0,3 mm 1 m/s 662 mmHg 94%
    02:00 +20°C° 0,3 mm 1 m/s 662 mmHg 95%
    03:00 +20°C° 0,3 mm 1 m/s 661 mmHg 96%
    04:00 +20°C° 0,2 mm 1 m/s 662 mmHg 96%
    05:00 +20°C° 0,2 mm 1 m/s 662 mmHg 96%
    06:00 +20°C° 0,2 mm 1 m/s 662 mmHg 96%
    07:00 +21°C° 0,5 mm 1 m/s 663 mmHg 93%
    08:00 +21°C° 0,5 mm 2 m/s 663 mmHg 90%
    09:00 +23°C° 0,5 mm 2 m/s 664 mmHg 87%
    10:00 +22°C° 0,7 mm 3 m/s 664 mmHg 84%
    11:00 +24°C° 0,7 mm 3 m/s 664 mmHg 81%
    12:00 +25°C° 0,7 mm 3 m/s 664 mmHg 78%
    13:00 +25°C° 0,7 mm 3 m/s 663 mmHg 76%
    14:00 +26°C° 0,7 mm 3 m/s 663 mmHg 74%
    15:00 +26°C° 0,7 mm 3 m/s 662 mmHg 72%
    16:00 +25°C° 0,6 mm 3 m/s 662 mmHg 77%
    17:00 +25°C° 0,6 mm 2 m/s 662 mmHg 81%
    18:00 +24°C° 0,6 mm 2 m/s 662 mmHg 85%
    19:00 +23°C° 0,2 mm 2 m/s 662 mmHg 88%
    20:00 +22°C° 0,2 mm 1 m/s 662 mmHg 90%
    21:00 +21°C° 0,2 mm 1 m/s 662 mmHg 93%
    22:00 +21°C° 0,9 mm 1 m/s 662 mmHg 93%
    23:00 +20°C° 0,9 mm 1 m/s 663 mmHg 93%

    28 Janeiro, Domingo

    Tempo Temperatura Precipitação Vento Pressão Humidade
    00:00 +20°C° 0,9 mm 1 m/s 663 mmHg 93%
    01:00 +20°C° 0 mm 1 m/s 662 mmHg 93%
    02:00 +20°C° 0 mm 1 m/s 662 mmHg 92%
    03:00 +20°C° 0 mm 1 m/s 662 mmHg 92%
    04:00 +19°C° 0 mm 1 m/s 662 mmHg 92%
    05:00 +19°C° 0 mm 1 m/s 662 mmHg 92%
    06:00 +19°C° 0 mm 1 m/s 662 mmHg 92%
    07:00 +19°C° 0,1 mm 2 m/s 663 mmHg 89%
    08:00 +21°C° 0,1 mm 2 m/s 663 mmHg 86%
    09:00 +23°C° 0,1 mm 2 m/s 664 mmHg 83%
    10:00 +24°C° 0,6 mm 3 m/s 664 mmHg 79%
    11:00 +25°C° 0,6 mm 3 m/s 664 mmHg 74%
    12:00 +27°C° 0,6 mm 4 m/s 664 mmHg 69%
    13:00 +27°C° 0,9 mm 4 m/s 663 mmHg 70%
    14:00 +27°C° 0,8 mm 3 m/s 663 mmHg 72%
    15:00 +27°C° 0,8 mm 3 m/s 662 mmHg 73%
    16:00 +26°C° 1,2 mm 3 m/s 662 mmHg 78%
    17:00 +25°C° 1,2 mm 2 m/s 662 mmHg 82%
    18:00 +24°C° 1,2 mm 2 m/s 662 mmHg 87%
    19:00 +23°C° 1,4 mm 2 m/s 662 mmHg 89%
    20:00 +22°C° 1,4 mm 1 m/s 662 mmHg 91%
    21:00 +21°C° 1,4 mm 1 m/s 662 mmHg 93%
    22:00 +21°C° 0,9 mm 1 m/s 662 mmHg 93%
    23:00 +21°C° 0,9 mm 1 m/s 662 mmHg 93%
    Mostrar mais